Chamberlain, SD

1:48 AM CST on November 19, 2017 (GMT -0600)
Chamberlain

Weather History for K9V9 - April, 2014

Change the Weather History Date:

Sunday, April 20, 2014

  Actual Average Record
Temperature  
Mean Temperature 60 °F -  
Max Temperature 82 °F 57 °F 82 °F (2014)
Min Temperature 39 °F 35 °F 23 °F (2013)
Degree Days  
Heating Degree Days 5    
Growing Degree Days 10 (Base 50)    
Moisture  
Dew Point 35 °F    
Average Humidity 42    
Maximum Humidity 77    
Minimum Humidity 17    
Precipitation  
Precipitation 0.18 in - - ()
Sea Level Pressure  
Sea Level Pressure 29.93 in    
Wind  
Wind Speed 7 mph (SE)    
Max Wind Speed 18 mph    
Max Gust Speed 28 mph    
Averages and records for this station are not official NWS values.
T = Trace of Precipitation, MM = Missing Value Source: NWS Daily Summary

Daily Weather History Graph

Daily Weather History Graph

Search for Another Location

Airport or City:

Trip Planner

Search our weather history database for the weather conditions in past years. The results will help you decide how hot, cold, wet, or windy it might be!

Date:

Astronomy

Apr. 20, 2014 Rise Set
Actual Time 6:46 AM CDT 8:27 PM CDT
Civil Twilight 6:15 AM CDT 8:57 PM CDT
Nautical Twilight 5:38 AM CDT 9:34 PM CDT
Astronomical Twilight 4:59 AM CDT 10:14 PM CDT
Moon 1:12 AM CDT (4/20) 11:04 AM CDT (4/20)
Length of Visible Light 14h 41m
Length of Day
13h 41m
Waning Gibbous, 68% of the Moon is Illuminated
Apr 20
Waning Gibbous
Apr 22
Last Quarter
Apr 29
New
May 6
First Quarter
May 14
Full

Hourly Weather History & Observations

Time (CDT) Temp. Windchill Dew Point Humidity Pressure Visibility Wind Dir Wind Speed Gust Speed Precip Events Conditions
12:52 AM 48.0 °F - 24.1 °F 39% 30.01 in - South 3.5 mph - N/A   Unknown
1:52 AM 48.9 °F - 24.1 °F 38% 30.01 in - Calm Calm - N/A   Unknown
2:52 AM 50.0 °F - 23.0 °F 35% 29.99 in - Calm Calm - N/A   Unknown
3:52 AM 42.1 °F 39.2 °F 27.0 °F 55% 30.01 in - SE 4.6 mph - N/A   Unknown
4:52 AM 39.0 °F 35.7 °F 26.1 °F 60% 30.01 in - South 4.6 mph - N/A   Unknown
5:52 AM 43.0 °F 41.3 °F 35.1 °F 74% 30.00 in - South 3.5 mph - N/A   Unknown
6:52 AM 39.9 °F - 33.1 °F 77% 29.99 in - Calm Calm - N/A   Unknown
7:52 AM 41.0 °F 39.0 °F 33.1 °F 73% 30.01 in - NNE 3.5 mph - N/A   Unknown
8:52 AM 50.0 °F - 34.0 °F 54% 29.99 in - SE 4.6 mph - N/A   Unknown
9:52 AM 59.0 °F - 28.9 °F 32% 29.97 in - SE 11.5 mph - N/A   Unknown
10:52 AM 66.9 °F - 28.0 °F 23% 29.97 in - SE 15.0 mph - N/A   Unknown
11:52 AM 70.0 °F - 28.9 °F 22% 29.96 in - SE 13.8 mph - N/A   Unknown
12:52 PM 73.9 °F - 28.9 °F 19% 29.94 in - SE 16.1 mph 21.9 mph N/A   Unknown
1:52 PM 77.0 °F - 28.9 °F 17% 29.91 in - SSE 13.8 mph - N/A   Unknown
2:52 PM 79.0 °F - 30.9 °F 17% 29.88 in - South 13.8 mph 19.6 mph N/A   Unknown
3:52 PM 81.0 °F - 36.0 °F 20% 29.86 in - SSE 12.7 mph - N/A   Unknown
4:52 PM 81.0 °F - 39.0 °F 22% 29.85 in - South 13.8 mph - N/A   Unknown
5:52 PM 81.0 °F - 41.0 °F 24% 29.83 in - South 9.2 mph - N/A   Unknown
6:52 PM 80.1 °F - 42.1 °F 26% 29.82 in - SSE 11.5 mph - N/A   Unknown
7:52 PM 73.0 °F - 44.1 °F 35% 29.82 in - ESE 8.1 mph - N/A   Unknown
8:52 PM 66.0 °F - 50.0 °F 56% 29.86 in - East 18.4 mph - 0.18 in   Unknown
8:59 PM 66.9 °F - 48.0 °F 51% 29.87 in - East 9.2 mph - N/A   Unknown
9:52 PM 63.0 °F - 51.1 °F 65% 29.86 in - ENE 10.4 mph - N/A   Unknown
10:52 PM 63.0 °F - 50.0 °F 63% 29.88 in - NNW 3.5 mph - N/A   Unknown
11:52 PM 62.1 °F - 45.0 °F 53% 29.93 in - North 18.4 mph 27.6 mph N/A   Unknown